Find Starlink 32100

NORAD ID: 59686 Int'l Des: 2024-086 Owner: SPXS Country: US Constellation: starlink operational
LEOCIRCULAR

当前视图

正在加载3D地球...

About Starlink 32100

Starlink 32100 (NORAD 59686) is a starlink constellation satellite (v2 mini) launched May 8, 2024 by SPXS of US. It operates in LEO, CIRCULAR orbit with a mass of 730.00 kg.

关于 Starlink 32100

正在加载描述...

即将过境

Passes for default location (London). Set your location on the main map for personalized predictions.

高度历史

Loading altitude history...

两行轨道根数

1 59686U 24086E 26199.82220044 -.00000299 00000-0 -13520-5 0 9991
2 59686 43.0044 21.2254 0001198 265.8267 94.2448 15.27574954124379
Epoch: Jul 18, 2026 • Age: 20 hours

当前状态

高度 493.5 km
远地点 / 近地点 N/A
速度 7.62 km/s
星下点 -37.78°S, 80.45°E
发射日期 May 8, 2024
运行时间 2.1 years
类型 internet

技术详情

分类 Payload
质量 730.00 kg
干质量 700.00 kg
总质量 730.00 kg
长度 0.30 m
直径 4.10 m
跨度 29.00 m
形状 Box + pan
制造商 SPXS
平台类型 Starlink V2M
阶段状态 In Orbit
所有者/国家 SPXS/US

Most Searched